Regional Weather Roundup
Issued by NWS

Home | Current Version | Previous Version | Graphics & Text | Print | Product List | Glossary Off
Versions: 1 2 3 4 5 6 7 8 9 10 11 12 13 14 15 16 17 18 19 20 21 22 23 24 25 26 27 28 29 30 31 32 33 34 35 36 37 38 39 40 41 42 43 44 45 46 47 48 49 50

000
ASUS43 KDTX 160301
RWRMI
MICHIGAN HOURLY REGIONAL WEATHER ROUNDUP
NATIONAL WEATHER SERVICE DETROIT/PONTIAC MI
1000 PM EST FRI DEC 15 2017

NOTE: "FAIR" INDICATES FEW OR NO CLOUDS BELOW 12,000 FEET WITH NO
SIGNIFICANT WEATHER AND/OR OBSTRUCTION TO VISIBILITY.

MIZ047>049-052>055-059>063-066>070-074>076-081>083-160400-
SOUTHEAST LOWER MICHIGAN

CITY           SKY/WX    TMP DP  RH WIND       PRES   REMARKS
ALMA           CLOUDY    17  15  93 CALM      29.87S
ANN ARBOR      CLOUDY    25  18  74 S7        29.90S WCI  17
BAD AXE        CLEAR     14   8  77 W6        29.84R WCI   5
CARO           FLURRIES  22  18  83 W8        29.86R WCI  13
DETROIT CITY   CLOUDY    26  16  65 SW12      29.92R WCI  16
DETROIT        FLURRIES  29  19  66 SW13      29.92R WCI  19
FLINT          MOCLDY    20  17  88 SW8       29.89R WCI  10
GROSSE ILE     CLOUDY    27  19  70 W8        29.92R WCI  19
HILLSDALE      FLURRIES  28  19  69 SW12G18   29.88S WCI  18
HOWELL         CLOUDY    24  18  77 SW5       29.88S WCI  18

CITY           SKY/WX    TMP DP  RH WIND       PRES   REMARKS
JACKSON        LGT SNOW  27  20  75 SW13      29.88S WCI  16
LAMBERTVILLE   CLOUDY    28  19  71 SW9       29.93S WCI  19
LANSING        FLURRIES  23  17  78 SW6       29.89R WCI  16
LAPEER         MOCLDY    20  17  85 W5        29.87R WCI  14
MASON          LGT SNOW  24  16  71 CALM      29.89R
MONROE         CLOUDY    27  18  70 SW8       29.92S WCI  18
MT. CLEMENS    MOCLDY    24  19  80 SW7       29.88R WCI  16
PONTIAC        FLURRIES  23  16  74 SW8       29.87R WCI  14
PORT HOPE        N/A     22  13  68 VRB7      29.81R WCI  13
PORT HURON     CLOUDY    21  14  73 SW3       29.89R
TRI CITIES     CLOUDY    20  17  88 W6        29.88R WCI  12
MIDLAND        FLURRIES  23  16  75 W6        29.87R WCI  15
TROY           CLOUDY    26  17  71 SW8       29.91R WCI  17
SAGINAW HB     PTCLDY    21  18  86 W9        29.87R WCI  11
$$
MIZ043>046-050>051-056>058-064>065-071>073-077>080-160400-
SOUTHWEST LOWER MICHIGAN

CITY           SKY/WX    TMP DP  RH WIND       PRES   REMARKS
BATTLE CREEK   LGT SNOW  28  23  81 SW15      29.88R WCI  16
BENTON HARBOR  LGT SNOW  34  26  72 W17       29.91S WCI  23
BIG RAPIDS     PTCLDY    15  13  92 CALM      29.83F
COLDWATER      FLURRIES  29  21  72 SW14G20   29.90S WCI  19
HOLLAND        FLURRIES  34  24  67 W13       29.88R WCI  25
GRAND RAPIDS   FLURRIES  24  20  84 S6        29.87R WCI  17
IONIA          FLURRIES  24  18  75 S6        29.87S WCI  17
KALAMAZOO      LGT SNOW  29  24  82 SW10      29.89S WCI  20
LUDINGTON      CLOUDY    25  16  68 NW9       29.84F WCI  15
MARSHALL       LGT SNOW  28  23  84 SW9       29.88S WCI  19
MOUNT PLEASANT PTCLDY    20  17  84 CALM      29.85S
MUSKEGON       CLOUDY    31  22  69 NW6       29.87R WCI  25
SOUTH HAVEN    LGT SNOW  34  29  80 W12G21    29.90R WCI  25
$$
MIZ016>042-160400-
NORTHERN LOWER MICHIGAN

CITY           SKY/WX    TMP DP  RH WIND       PRES   REMARKS
ALPENA         CLOUDY    21  18  88 W5        29.78R WCI  15
BEAVER ISLAND  MOCLDY    21  10  62 W9G17     29.79S WCI  11
BELLAIRE       FLURRIES  24  19  83 W3        29.80S
CADILLAC       FLURRIES  17  13  83 SW5       29.78F WCI  10
CHARLEVOIX     FLURRIES  24  15  67 W15       29.81S WCI  12
FRANKFORT      CLOUDY    24  14  66 NW12G17   29.83S WCI  13
GAYLORD        LGT SNOW  19  15  84 W7        29.73S VSB 3/4 WCI  10
GRAYLING       CLOUDY    19  13  77 W8        29.78R WCI   9
HARBOR SPRINGS CLOUDY    21  12  68 NW7       29.76S WCI  13
HOUGHTON LAKE  CLOUDY    18  12  77 SW10      29.79S WCI   6
MANISTEE       CLOUDY    21  14  74 W10       29.84S WCI  10
OSCODA         CLOUDY    20  13  75 W14       29.80R WCI   7
PELLSTON       CLOUDY    21  12  68 NW13      29.78R WCI   9
ROGERS CITY    LGT SNOW  20  16  83 NW13G21   29.77R WCI   8
TRAVERSE CITY  CLOUDY    22  14  71 SW5       29.81S WCI  16
$$
MIZ007>008-015-160400-
EASTERN UPPER MICHIGAN

CITY           SKY/WX    TMP DP  RH WIND       PRES   REMARKS
KINROSS        FLURRIES  16  13  88 W9        29.75S WCI   4
MACKINAC ISLAN PTCLDY    20  13  72 NW13      29.76S WCI   8
NEWBERRY       LGT SNOW  15  15  97 W6        29.76S WCI   7
S. S. MARIE    FLURRIES  19   8  62 N13G18    29.73S WCI   6
$$
MIZ004>006-011>014-085-160400-
CENTRAL UPPER MICHIGAN

CITY           SKY/WX    TMP DP  RH WIND       PRES   REMARKS
MANISTIQUE     PTCLDY    10   1  64 NW8       29.80S WCI  -1
ESCANABA       MOCLDY    10   6  84 W6        29.83F WCI   0
MENOMINEE      MOCLDY    11   5  77 CALM      29.85F
SAWYER-GWINN   CLEAR      7   3  85 W7        29.78S WCI  -5
$$
MIZ001>003-009>011-084-160400-
WESTERN UPPER MICHIGAN

CITY           SKY/WX    TMP DP  RH WIND       PRES   REMARKS
IRON MOUNTAIN  CLOUDY     8   3  80 CALM      29.79R
HOUGHTON       LGT SNOW  10   5  80 CALM      29.76S
IRONWOOD       CLOUDY     5   2  87 E5        29.77F WCI  -4
$$

ABBREVIATIONS USED IN REMARKS
   TC - TEMPERATURE IN CELSIUS
  WCI - WIND CHILL INDEX
   HX - HEAT INDEX
  VSB - VISIBILITY




USA.gov is the U.S. government's official web portal to all federal, state and local government web resources and services.